Location: Kershaw
(34.5481°N, 80.5823°W)
Time: 12:14:12
(UTC+00:00)

Explorer 7 - Pass Details

Date: 06 October 2022
Orbit: 481 x 665 km, 50.3° (Epoch: 26 November)

Event Time Altitude Azimuth Distance (km) Brightness Sun altitude
Rises 16:22:53 0° 285° (WNW) 2,999 10.4 48.6°
Reaches altitude 10° 16:26:12 10° 308° (NW) 2,087 9.5 48.8°
Maximum altitude 16:29:00 15° 344° (NNW) 1,757 9.2 49.0°
Drops below altitude 10° 16:31:48 10° 20° (NNE) 2,067 9.5 49.1°
Sets 16:35:04 0° 43° (NE) 2,954 10.3 49.3°
